7 * 24
多渠道服务支持
STARLINK-37326(NORAD编号68542)是美国SpaceX公司星链(Starlink)低轨互联网星座中的一颗卫星,属于二代星链(Gen2)组网卫星。该卫星运行于近地轨道,采用Ku、Ka频段通信,配备氪离子推进系统与自主碰撞规避系统,依托星链星座的星间激光链路实现全球低时延网络覆盖,为全球未联网区域提供高速互联网接入服务,也具备一定的商业和军事应用潜力。单颗星链卫星质量约227-260kg,设计寿命约5年,这类卫星通过SpaceX可重复使用猎鹰9火箭批量发射入轨,持续推进星链星座的组网建设,推动全球卫星互联网商业化落地。
美国
(US)
| 数据来源 | 国际轨道数据 |
| 星历时间: | 2026-07-27T23:46:18+0800 9小时前 查看轨道信息 |
| 半长轴: | 6840.829km |
| 偏心率: | 0.0001165 |
| 轨道倾角: | 53.158° |
| 近地点辐角 | 97.604° |
| 升交点赤经 | 70.379° |
| 平近点角 | 262.509° |
| 近地点: | 461.895km |
| 远地点: | 463.489km |
| 周期: | 93.848分钟 |
| 每日圈数: | 15.344039 |